DECAYED

STARLINK-31268, 59245 (Decayed)

Orbit data source: Space-Track

STARLINK-31268, 59245 was a payload satellite owned by SpaceX/Seattle (US) in LEO that was launched on Sat, 16 Mar 2024 UTC via an FALCON 9 launch vehicle from the Air Force Eastern Test Range (AFETR). Payload-class satellites include a variety of spacecraft equipped with specific instruments for various scientific and technological missions. These include communications satellites like Starlink; space stations such as the ISS; scientific satellites like the Hubble; Earth observation satellites from companies like Planet Labs, Umbra, and HawkEye 360; GPS; miniature CubeSats for education and research; and military/defense satellites.

Not visible in the next 10 days
Identifier
59245, 2024-049Q
Orbit
Decayed
Country
Flag of USUS
Related business
Manufacturer
SpaceX/Seattle
Mission
Decayed Commercial Communications
Bus & Motor
STARLINK V2M, Unknown motor
Mass
730 kg wet, ~700 kg dry
Launch date (UTC)
2024-03-16 (2 years ago)
Launch vehicle
FALCON 9
Launch site
Air Force Eastern Test Range (AFETR)
Object type
Payload
Rocket body
Debris
Shape & HBR
Box + 2 Pan, 17.7 m
Radar Cross Section
33.884 m², Large (>1 m²)

Expand to show TLE details & history
Last TLE update: 2 months ago

TLE from 2 months ago
0 STARLINK-31268
1 59245U 24049Q   26102.89121189  .10617528  91156-5  42359-2 0  9996
2 59245  42.9733 270.0808 0018112 313.8873  46.0517 16.22184750118083
Epoch: 2026-04-12T21:23Z
TLE epoch observation values (Epoch: 2026-04-12T21:23:20.707Z)
Latitude
0.00001°
Longitude
108.15487°
Altitude
205.117 km
Speed
7.79 km/s
True Right ascension
18h 00m 19s
True Declination
0° 00' 00"
Sunlit
Object was in full shadow at epoch
Visualization orbit readout
Latitude
Unknown
Longitude
Unknown
Altitude
Unknown
Speed
Unknown
Apparent Right ascension
Unknown
Apparent Declination
Unknown
Sunlit
N/A
Visualization observer readout
Local Sidereal Time
21:28:53
Azimuth
Unknown
Elevation
Unknown
Doppler factor
Unknown
Orbital elements
Apogee altitude
227.598 km
Perigee altitude
203.713 km
Semi-major axis
6,593.793 km
Eccentricity
0.00181
Inclination
42.9733°
RAAN
270.0808°
Arg. of periapsis
313.8873°
True anomaly
46.20136°
Mean anomaly
46.0517°
Eccentric anomaly
46.12651°
Mean motion
4.05359 °/min
Orbital period
88.81 mins
BSTAR
0.0042359
Loading maneuver chart data...
Computing Atmospheric mass density...
Loading historical data...
Loading historical data...
Loading historical data...
Loading historical data...
Loading historical data...
Loading historical data...
Loading historical data...

Documentation

Showing up to 5 results
|